[ hide orbit diagram ]
For accurate long-term ephemerides, please instead use our Horizons system.This orbit viewer was implemented using two-body methods, and hence should not be used for determining accurate long-term trajectories (over several years or decades) or planetary encounter circumstances.
Orbital Elements at Epoch 2459000.5 (2020-May-31.0) TDB
Reference: JPL 113 (heliocentric ecliptic J2000)
Element | Value | Uncertainty (1-sigma) | Units |
e | .1277283571148532 | 2.691e-08 | |
a | 2.365084760576064 | 3.0659e-09 | au |
q | 2.062996369670307 | 6.3246e-08 | au |
i | 2.096021963190929 | 3.0104e-06 | deg |
node | 307.4686482852106 | 8.0078e-05 | deg |
peri | 87.31845881112748 | 8.1103e-05 | deg |
M | 137.5647324892518 | 1.3079e-05 | deg |
tp | 2458492.839820901190 (2019-Jan-09.33982090) | 4.7956e-05 | TDB |
period | 1328.521207205857 3.64 | 2.5833e-06 7.073e-09 | d yr |
n | .2709779851818484 | 5.2692e-10 | deg/d |
Q | 2.667173151481821 | 3.4576e-09 | au |
|
| | Orbit Determination Parameters
Additional Information
|
[ show covariance matrix ]
Physical Parameter Table
Parameter |
Symbol |
Value |
Units |
Sigma |
Reference |
Notes |
absolute magnitude |
H |
7.5 |
|
n/a |
MPO502153 |
|
diameter |
diameter |
92.787 |
km |
2.040 |
urn:nasa:pds:neowise_diameters_albedos::2.0[mainbelt] (http://adsabs.harvard.edu/abs/2014ApJ...791..121M) |
|
rotation period |
rot_per |
13.686 |
h |
n/a |
LCDB (Rev. 2020-October); Warner et al., 2009 |
Published Reference List: [Bailey, S.J. (1913) Ann. Harvard Coll. Obs. 72, 165-189.] [Rigollet, R. (1950) C. R. 230, 2077-2078.] [Gehrels, T.; Owings, D. (1962) Astrophys. J. 135, 906-924.] [Harris, A.W.; Young, J.W. (1980) Icarus 43, 20-32.] [Wisniewski, W.Z.; Michalowski, T.M.; Harris, A.W.; McMillan, R.S. (1997) Icarus 126, 395-449; 1995, Lunar & Planetary Sci. XXVI, 1511-1512.] [Durech, J. (2006) IAU 2006, poster paper.] [Durech, J.; Kaasalainen, M.; Warner, B.D.; Fauerbach, M.; et al. (2009) Astron. Astrophys. 493, 291-297.] [Hanus, J.; Marchis, F.; Durech, J. (2013) Icarus 226, 1045-1057.] [Husar, D.; Kretlow, M. (2015) Minor Planet Bull. 42, 157-158.] [Cellino, A.; Hestroffer, D.; Lu, X.-P.; Muinonen, K.; Tanga, P. (2019) Astron. Astrophys. 631, A67.] |
geometric albedo |
albedo |
0.192 |
|
0.027 |
urn:nasa:pds:neowise_diameters_albedos::2.0[mainbelt] (http://adsabs.harvard.edu/abs/2014ApJ...791..121M) |
|
B-V |
BV |
0.873 |
|
0.022 |
EAR-A-5-DDR-UBV-MEAN-VALUES-V1.2 |
#obs=7; phase (min.=.70, mean=9.32, max.=24.88) deg. |
U-B |
UB |
0.459 |
|
0.030 |
EAR-A-5-DDR-UBV-MEAN-VALUES-V1.2 |
#obs=7; phase (min.=.70, mean=9.32, max.=24.88) deg. |
Tholen spectral type |
spec_T |
S |
|
n/a |
EAR-A-5-DDR-TAXONOMY-V4.0 |
used 7 color indices; used ground-based radiometric albedo |
SMASSII spectral type |
spec_B |
Sl |
|
n/a |
EAR-A-5-DDR-TAXONOMY-V4.0 |
based on a high-resolution spectrum by Xu et al. (1995) or Bus and Binzel (2002) |
|
30 Urania (A854 OA) Discovered 1854-Jul-22 by Hind, J. R. at London |
Reference: DISCOVERY.DB | Last Updated: 2003-08-29 |
|
[ hide close-approach data ]
Close-Approach Data ...sorted by Date/Time (TDB)
|
Date/Time (TDB) |
Time Uncertainty (days_HH:MM) |
Body |
Nominal Distance (au) |
Minimum Distance (au) |
Maximum Distance (au) |
V-relative (km/s) |
V-infinity (km/s) |
JD (TDB) |
Time Uncertainty (minutes) |
Semi-major axis (km) |
Semi-minor axis (km) |
range-LOV angle (deg) |
N-sigma |
BP |
Orbit Ref. |
Reference |
Modified |
2078-Oct-07 23:41 |
< 00:01 |
Amphi |
0.0462027494516053 |
0.0462016200002711 |
0.0462038789434119 |
1.60367944618359 |
1.60367936859682 |
2480314.486988952 |
0.89534786558677 |
89.1565684535637 |
10.6751889298794 |
-51.4749859455982 |
507227.252645036 |
T |
113 |
CATAB v2.0f-lin.ifort 2020-Nov-13 04:34:21 |
2020-Nov-13 04:34 |
|
|